This demonstration page uses our WeatherBlox Daily Observations layout. Learn more.

38.89511, -77.03637

Hourly Observations for November 11, 2019

Temp ( °F °C ) Dew Point ( °F °C ) Humidity (%) Winds ( mph kmh ) Pressure ( in mb ) Visibility ( mi km ) Precip ( " mm )
12:52 am 00:52 Mostly Clear 45 7.2 42 5.6 90 90 Calm 30.06 1018 10 16.0934 0 0
1:52 am 01:52 Clear 45 7.2 40 4.4 83 83 NNE 3 6 30.05 1018 10 16.0934 0 0
2:52 am 02:52 Clear 45 7.2 41 5 86 86 Calm 30.06 1018 10 16.0934 0 0
3:52 am 03:52 Partly Cloudy 42 5.6 39 3.9 89 89 SW 3 6 30.06 1018 10 16.0934 0 0
4:52 am 04:52 Mostly Cloudy 43 6.1 40 4.4 89 89 Calm 30.07 1018 10 16.0934 0 0
5:52 am 05:52 Mostly Cloudy 42 5.6 39 3.9 89 89 Calm 30.08 1019 10 16.0934 0 0
6:52 am 06:52 Mostly Cloudy 42 5.6 39 3.9 89 89 SSW 3 6 30.08 1019 10 16.0934 0 0
7:52 am 07:52 Mostly Cloudy 45 7.2 42 5.6 90 90 SSW 5 7 30.1 1019 10 16.0934 0 0
8:52 am 08:52 Mostly Cloudy 48 8.9 44 6.7 86 86 S 6 9 30.1 1019 10 16.0934 0 0
9:52 am 09:52 Mostly Cloudy 51 10.6 44 6.7 77 77 S 7 11 30.09 1019 10 16.0934 0 0
10:52 am 10:52 Mostly Cloudy 55 12.8 44 6.7 67 67 S 8 13 30.07 1018 10 16.0934 0 0
11:52 am 11:52 Mostly Cloudy 60 15.6 43 6.1 53 53 S 8 13 30.05 1018 10 16.0934 0 0
12:52 pm 12:52 Mostly Cloudy 64 17.8 43 6.1 46 46 S 7 11 30.01 1016 10 16.0934 0 0
1:52 pm 13:52 Mostly Cloudy 68 20 41 5 38 38 S 9 15 29.98 1015 10 16.0934 0 0
2:52 pm 14:52 Mostly Cloudy 67 19.4 40 4.4 37 37 S 10 17 29.95 1014 10 16.0934 0 0
3:52 pm 15:52 Mostly Cloudy 64 17.8 43 6.1 46 46 S 12 19 29.93 1014 10 16.0934 0 0
4:52 pm 16:52 Mostly Cloudy 63 17.2 42 5.6 47 47 SSE 13 20 29.91 1013 10 16.0934 0 0
5:52 pm 17:52 Mostly Cloudy 60 15.6 44 6.7 56 56 S 9 15 29.88 1012 10 16.0934 0 0
6:52 pm 18:52 Partly Cloudy 58 14.4 45 7.2 62 62 S 9 15 29.88 1012 10 16.0934 0 0
7:52 pm 19:52 Partly Cloudy 56 13.3 47 8.3 72 72 S 12 19 29.87 1012 10 16.0934 0 0
8:52 pm 20:52 Partly Cloudy 57 13.9 47 8.3 69 69 S 12 19 29.87 1012 10 16.0934 0 0
9:52 pm 21:52 Cloudy 58 14.4 45 7.2 62 62 S 13 20 29.85 1011 10 16.0934 0 0
10:52 pm 22:52 Cloudy 60 15.6 42 5.6 52 52 SSW 14 22 29.83 1010 10 16.0934 0 0
11:52 pm 23:52 Cloudy 60 15.6 41 5 50 50 SSW 14 22 29.8 1009 10 16.0934 0 0

Powered by AerisWeather